Time,TemperatureF,DewpointF,PressureIn,WindDirection,WindDirectionDegrees,WindSpeedMPH,WindSpeedGustMPH,Humidity,HourlyPrecipIn,Conditions,Clouds,dailyrainin,SoftwareType,DateUTC
2015-07-28 00:01:00,74.8,74.5,30.06,SE,135,2.3,2.3,99,0.00,RA,,0.00,WeatherDisplay:10.37,2015-07-28 04:01:00,
2015-07-28 00:06:00,74.8,74.5,30.05,SE,135,2.3,2.3,99,0.00,RA,,0.00,WeatherDisplay:10.37,2015-07-28 04:06:00,
2015-07-28 00:11:00,75.0,74.7,30.05,East,90,3.5,3.5,99,0.00,CLR,,0.00,WeatherDisplay:10.37,2015-07-28 04:11:00,
2015-07-28 00:16:00,75.1,74.8,30.05,SE,135,2.3,2.3,99,0.00,CLR,,0.00,WeatherDisplay:10.37,2015-07-28 04:16:00,
2015-07-28 00:21:00,75.1,74.8,30.05,SE,135,2.3,2.3,99,0.00,CLR,,0.00,WeatherDisplay:10.37,2015-07-28 04:21:00,
2015-07-28 00:26:00,75.2,74.9,30.05,ESE,112,3.5,3.5,99,0.00,CLR,,0.00,WeatherDisplay:10.37,2015-07-28 04:26:00,
2015-07-28 00:36:00,75.4,75.1,30.05,SE,135,3.5,3.5,99,0.00,CLR,,0.00,WeatherDisplay:10.37,2015-07-28 04:36:00,
2015-07-28 00:41:00,75.4,75.1,30.05,ESE,112,4.0,4.0,99,0.00,CLR,,0.00,WeatherDisplay:10.37,2015-07-28 04:41:00,
2015-07-28 00:46:00,75.4,75.1,30.05,ESE,112,3.5,3.5,99,0.00,CLR,,0.00,WeatherDisplay:10.37,2015-07-28 04:46:00,
2015-07-28 00:51:00,75.3,75.0,30.05,SE,135,2.3,2.3,99,0.00,CLR,,0.00,WeatherDisplay:10.37,2015-07-28 04:51:00,
2015-07-28 00:56:00,75.1,74.8,30.05,SE,135,2.3,2.3,99,0.00,CLR,,0.00,WeatherDisplay:10.37,2015-07-28 04:56:00,
2015-07-28 01:01:00,74.8,74.5,30.04,SE,135,1.2,1.2,99,0.00,CLR,,0.00,WeatherDisplay:10.37,2015-07-28 05:01:00,
2015-07-28 01:06:00,74.7,74.4,30.04,SE,135,2.3,2.3,99,0.00,CLR,,0.00,WeatherDisplay:10.37,2015-07-28 05:06:00,
2015-07-28 01:16:00,74.6,74.3,30.04,SE,135,2.3,2.3,99,0.00,CLR,,0.00,WeatherDisplay:10.37,2015-07-28 05:16:00,
2015-07-28 01:26:00,74.4,74.1,30.04,SE,135,2.3,2.3,99,0.00,CLR,,0.00,WeatherDisplay:10.37,2015-07-28 05:26:00,
2015-07-28 01:31:00,74.4,74.1,30.04,SE,135,2.0,2.0,99,0.00,CLR,,0.00,WeatherDisplay:10.37,2015-07-28 05:31:00,
2015-07-28 01:36:00,74.2,73.9,30.04,SE,135,1.2,1.2,99,0.00,CLR,,0.00,WeatherDisplay:10.37,2015-07-28 05:36:00,
2015-07-28 01:41:00,74.2,73.9,30.04,SE,135,2.3,2.3,99,0.00,CLR,,0.00,WeatherDisplay:10.37,2015-07-28 05:41:00,
2015-07-28 01:46:00,74.1,73.8,30.04,SE,135,2.3,2.3,99,0.00,CLR,,0.00,WeatherDisplay:10.37,2015-07-28 05:46:00,
2015-07-28 01:51:00,74.0,73.7,30.04,SE,135,2.3,2.3,99,0.00,CLR,,0.00,WeatherDisplay:10.37,2015-07-28 05:51:00,
2015-07-28 01:56:00,74.0,73.7,30.03,SE,135,2.3,2.3,99,0.00,CLR,,0.00,WeatherDisplay:10.37,2015-07-28 05:56:00,
2015-07-28 02:01:00,73.9,73.6,30.03,SE,135,2.3,2.3,99,0.00,CLR,,0.00,WeatherDisplay:10.37,2015-07-28 06:01:00,
2015-07-28 02:06:00,73.8,73.5,30.03,SE,135,1.2,1.5,99,0.00,CLR,,0.00,WeatherDisplay:10.37,2015-07-28 06:06:00,
2015-07-28 02:12:00,73.8,73.5,30.03,SE,135,2.3,2.3,99,0.00,CLR,,0.00,WeatherDisplay:10.37,2015-07-28 06:12:00,
2015-07-28 02:22:00,73.7,73.4,30.02,SE,135,2.3,2.3,99,0.00,CLR,,0.00,WeatherDisplay:10.37,2015-07-28 06:22:00,
2015-07-28 02:27:00,73.7,73.4,30.02,SE,135,2.3,2.3,99,0.00,CLR,,0.00,WeatherDisplay:10.37,2015-07-28 06:27:00,
2015-07-28 02:32:00,73.7,73.4,30.02,SE,135,2.3,2.3,99,0.00,CLR,,0.00,WeatherDisplay:10.37,2015-07-28 06:32:00,
2015-07-28 02:37:00,73.6,73.3,30.02,SE,135,0.0,0.0,99,0.00,CLR,,0.00,WeatherDisplay:10.37,2015-07-28 06:37:00,
2015-07-28 02:42:00,73.4,73.1,30.02,SE,135,0.0,0.0,99,0.00,CLR,,0.00,WeatherDisplay:10.37,2015-07-28 06:42:00,
2015-07-28 02:47:00,73.3,73.0,30.02,SE,135,0.0,0.0,99,0.00,CLR,,0.00,WeatherDisplay:10.37,2015-07-28 06:47:00,
2015-07-28 02:52:00,73.3,73.0,30.02,SE,135,0.0,0.0,99,0.00,CLR,,0.00,WeatherDisplay:10.37,2015-07-28 06:52:00,
2015-07-28 02:57:00,73.3,73.0,30.02,SE,135,0.0,0.0,99,0.00,CLR,,0.00,WeatherDisplay:10.37,2015-07-28 06:57:00,
2015-07-28 03:02:00,73.1,72.8,30.02,SE,135,0.0,0.0,99,0.00,CLR,,0.00,WeatherDisplay:10.37,2015-07-28 07:02:00,
2015-07-28 03:07:00,73.0,72.7,30.02,SE,135,0.0,0.0,99,0.00,CLR,,0.00,WeatherDisplay:10.37,2015-07-28 07:07:00,
2015-07-28 03:12:00,73.0,72.7,30.02,SE,135,0.0,0.0,99,0.00,CLR,,0.00,WeatherDisplay:10.37,2015-07-28 07:12:00,
2015-07-28 03:17:00,72.8,72.5,30.02,SE,135,0.0,0.0,99,0.00,CLR,,0.00,WeatherDisplay:10.37,2015-07-28 07:17:00,
2015-07-28 03:22:00,72.8,72.5,30.02,SE,135,0.0,0.0,99,0.00,CLR,,0.00,WeatherDisplay:10.37,2015-07-28 07:22:00,
2015-07-28 03:27:00,72.8,72.5,30.02,SE,135,2.0,2.0,99,0.00,CLR,,0.00,WeatherDisplay:10.37,2015-07-28 07:27:00,
2015-07-28 03:32:00,72.6,72.3,30.02,SE,135,0.0,0.0,99,0.00,CLR,,0.00,WeatherDisplay:10.37,2015-07-28 07:32:00,
2015-07-28 03:37:00,72.6,72.3,30.02,SE,135,0.0,0.0,99,0.00,CLR,,0.00,WeatherDisplay:10.37,2015-07-28 07:37:00,
2015-07-28 03:42:00,72.5,72.2,30.02,SE,135,0.0,0.0,99,0.00,CLR,,0.00,WeatherDisplay:10.37,2015-07-28 07:42:00,
2015-07-28 03:47:00,72.4,72.1,30.02,SE,135,0.0,0.0,99,0.00,CLR,,0.00,WeatherDisplay:10.37,2015-07-28 07:47:00,
2015-07-28 03:52:00,72.5,72.2,30.02,SE,135,0.0,0.0,99,0.00,CLR,,0.00,WeatherDisplay:10.37,2015-07-28 07:52:00,
2015-07-28 03:57:00,72.3,72.0,30.02,SE,135,0.0,0.0,99,0.00,CLR,,0.00,WeatherDisplay:10.37,2015-07-28 07:57:00,
2015-07-28 04:02:00,72.2,71.9,30.02,SE,135,2.3,2.3,99,0.00,CLR,,0.00,WeatherDisplay:10.37,2015-07-28 08:02:00,
2015-07-28 04:07:00,72.4,72.1,30.02,SE,135,1.2,1.2,99,0.00,CLR,,0.00,WeatherDisplay:10.37,2015-07-28 08:07:00,
2015-07-28 04:12:00,72.5,72.2,30.02,SE,135,2.3,2.3,99,0.00,CLR,,0.00,WeatherDisplay:10.37,2015-07-28 08:12:00,
2015-07-28 04:17:00,72.5,72.2,30.02,SE,135,0.0,0.0,99,0.00,CLR,,0.00,WeatherDisplay:10.37,2015-07-28 08:17:00,
2015-07-28 04:22:00,72.4,72.1,30.02,SE,135,0.0,0.0,99,0.00,CLR,,0.00,WeatherDisplay:10.37,2015-07-28 08:22:00,
2015-07-28 04:27:00,72.4,72.1,30.02,SE,135,0.0,0.0,99,0.00,CLR,,0.00,WeatherDisplay:10.37,2015-07-28 08:27:00,
2015-07-28 04:32:00,72.4,72.1,30.02,SE,135,1.2,1.2,99,0.00,CLR,,0.00,WeatherDisplay:10.37,2015-07-28 08:32:00,
2015-07-28 04:37:00,72.4,72.1,30.02,SE,135,1.0,1.0,99,0.00,CLR,,0.00,WeatherDisplay:10.37,2015-07-28 08:37:00,
2015-07-28 04:42:00,72.4,72.1,30.02,SE,135,2.3,2.3,99,0.00,CLR,,0.00,WeatherDisplay:10.37,2015-07-28 08:42:00,
2015-07-28 04:47:00,72.4,72.1,30.02,SE,135,2.3,2.3,99,0.00,CLR,,0.00,WeatherDisplay:10.37,2015-07-28 08:47:00,
2015-07-28 04:52:00,72.4,72.1,30.02,SE,135,2.3,2.3,99,0.00,CLR,,0.00,WeatherDisplay:10.37,2015-07-28 08:52:00,
2015-07-28 04:57:00,72.6,72.3,30.02,SE,135,2.3,2.3,99,0.00,CLR,,0.00,WeatherDisplay:10.37,2015-07-28 08:57:00,
2015-07-28 05:02:00,72.7,72.4,30.02,SE,135,2.3,2.3,99,0.00,CLR,,0.00,WeatherDisplay:10.37,2015-07-28 09:02:00,
2015-07-28 05:07:00,72.6,72.3,30.02,SSE,157,2.3,2.3,99,0.00,CLR,,0.00,WeatherDisplay:10.37,2015-07-28 09:07:00,
2015-07-28 05:12:00,72.6,72.3,30.02,SE,135,3.5,3.5,99,0.00,CLR,,0.00,WeatherDisplay:10.37,2015-07-28 09:12:00,
2015-07-28 05:17:00,72.8,72.5,30.02,SE,135,3.5,3.5,99,0.00,CLR,,0.00,WeatherDisplay:10.37,2015-07-28 09:17:00,
2015-07-28 05:22:00,72.8,72.5,30.02,SSE,157,2.3,2.3,99,0.00,CLR,,0.00,WeatherDisplay:10.37,2015-07-28 09:22:00,
2015-07-28 05:27:00,72.8,72.5,30.02,SE,135,2.3,2.3,99,0.00,CLR,,0.00,WeatherDisplay:10.37,2015-07-28 09:27:00,
2015-07-28 05:37:00,72.8,72.5,30.02,SE,135,2.3,2.3,99,0.00,CLR,,0.00,WeatherDisplay:10.37,2015-07-28 09:37:00,
2015-07-28 05:42:00,72.7,72.4,30.02,SE,135,2.3,2.3,99,0.00,CLR,,0.00,WeatherDisplay:10.37,2015-07-28 09:42:00,
2015-07-28 05:47:00,72.8,72.5,30.03,SE,135,2.3,2.3,99,0.00,CLR,,0.00,WeatherDisplay:10.37,2015-07-28 09:47:00,
2015-07-28 05:52:00,72.8,72.5,30.03,ESE,112,1.2,1.2,99,0.00,CLR,,0.00,WeatherDisplay:10.37,2015-07-28 09:52:00,
2015-07-28 05:57:00,72.8,72.5,30.03,ESE,112,2.3,2.3,99,0.00,CLR,,0.00,WeatherDisplay:10.37,2015-07-28 09:57:00,
2015-07-28 06:02:00,72.8,72.5,30.03,ESE,112,2.3,2.3,99,0.00,CLR,,0.00,WeatherDisplay:10.37,2015-07-28 10:02:00,
2015-07-28 06:07:00,72.8,72.5,30.03,ESE,112,2.3,2.3,99,0.00,CLR,,0.00,WeatherDisplay:10.37,2015-07-28 10:07:00,
2015-07-28 06:12:00,73.0,72.7,30.03,SE,135,2.3,2.3,99,0.00,CLR,,0.00,WeatherDisplay:10.37,2015-07-28 10:12:00,
2015-07-28 06:17:00,73.1,72.8,30.03,SE,135,2.3,2.3,99,0.00,CLR,,0.00,WeatherDisplay:10.37,2015-07-28 10:17:00,
2015-07-28 06:22:00,73.1,72.8,30.03,SE,135,2.3,2.3,99,0.00,CLR,,0.00,WeatherDisplay:10.37,2015-07-28 10:22:00,
2015-07-28 06:27:00,73.0,72.7,30.03,SE,135,2.3,2.3,99,0.00,CLR,,0.00,WeatherDisplay:10.37,2015-07-28 10:27:00,
2015-07-28 06:32:00,73.0,72.7,30.03,SE,135,2.3,2.3,99,0.00,CLR,,0.00,WeatherDisplay:10.37,2015-07-28 10:32:00,
2015-07-28 06:37:00,73.0,72.7,30.03,SE,135,2.3,2.3,99,0.00,CLR,,0.00,WeatherDisplay:10.37,2015-07-28 10:37:00,
2015-07-28 06:42:00,73.0,72.7,30.03,NNE,22,0.0,0.0,99,0.01,RA,,0.01,WeatherDisplay:10.37,2015-07-28 10:42:00,
2015-07-28 06:47:00,73.0,72.7,30.04,SE,135,1.2,1.2,99,0.01,RA,,0.01,WeatherDisplay:10.37,2015-07-28 10:47:00,
2015-07-28 06:57:00,73.0,72.7,30.04,SE,135,2.0,2.0,99,0.01,CLR,,0.01,WeatherDisplay:10.37,2015-07-28 10:57:00,
2015-07-28 07:02:00,73.2,72.9,30.04,SE,135,2.3,2.3,99,0.01,CLR,,0.01,WeatherDisplay:10.37,2015-07-28 11:02:00,
2015-07-28 07:07:00,73.3,73.0,30.05,SE,135,2.3,2.3,99,0.01,CLR,,0.01,WeatherDisplay:10.37,2015-07-28 11:07:00,
2015-07-28 07:12:00,73.4,73.1,30.05,SE,135,2.3,2.3,99,0.01,CLR,,0.01,WeatherDisplay:10.37,2015-07-28 11:12:00,
2015-07-28 07:17:00,73.6,73.3,30.06,SE,135,2.3,2.3,99,0.01,CLR,,0.01,WeatherDisplay:10.37,2015-07-28 11:17:00,
2015-07-28 07:22:00,73.8,73.5,30.06,SE,135,3.5,3.5,99,0.01,CLR,,0.01,WeatherDisplay:10.37,2015-07-28 11:22:00,
2015-07-28 07:27:00,73.8,73.5,30.06,SE,135,2.3,2.3,99,0.01,CLR,,0.01,WeatherDisplay:10.37,2015-07-28 11:27:00,
2015-07-28 07:32:00,74.1,73.8,30.06,SE,135,2.3,2.3,99,0.01,CLR,,0.01,WeatherDisplay:10.37,2015-07-28 11:32:00,
2015-07-28 07:37:00,74.3,74.0,30.06,SE,135,2.3,2.3,99,0.01,CLR,,0.01,WeatherDisplay:10.37,2015-07-28 11:37:00,
2015-07-28 07:42:00,74.4,74.1,30.06,SE,135,2.3,2.3,99,0.00,CLR,,0.01,WeatherDisplay:10.37,2015-07-28 11:42:00,
2015-07-28 07:48:00,74.7,74.4,30.07,SE,135,2.3,2.3,99,0.00,CLR,,0.01,WeatherDisplay:10.37,2015-07-28 11:48:00,
2015-07-28 07:52:00,75.0,74.7,30.07,SE,135,3.5,3.5,99,0.00,CLR,,0.01,WeatherDisplay:10.37,2015-07-28 11:52:00,
2015-07-28 07:58:00,75.2,74.9,30.08,SSE,157,3.5,3.5,99,0.00,CLR,,0.01,WeatherDisplay:10.37,2015-07-28 11:58:00,
2015-07-28 08:03:00,75.4,75.1,30.08,SE,135,4.0,4.0,99,0.00,CLR,,0.01,WeatherDisplay:10.37,2015-07-28 12:03:00,
2015-07-28 08:08:00,75.6,75.3,30.08,SSE,157,3.5,3.5,99,0.00,CLR,,0.01,WeatherDisplay:10.37,2015-07-28 12:08:00,
2015-07-28 08:13:00,75.8,75.5,30.08,SE,135,3.5,3.5,99,0.00,CLR,,0.01,WeatherDisplay:10.37,2015-07-28 12:13:00,
2015-07-28 08:18:00,76.2,76.2,30.08,SSE,157,5.8,5.8,100,0.00,CLR,,0.01,WeatherDisplay:10.37,2015-07-28 12:18:00,
2015-07-28 08:23:00,76.5,76.5,30.09,SE,135,6.9,6.9,100,0.00,CLR,,0.01,WeatherDisplay:10.37,2015-07-28 12:23:00,
2015-07-28 08:28:00,76.8,76.8,30.09,SSE,157,6.9,6.9,100,0.00,CLR,,0.01,WeatherDisplay:10.37,2015-07-28 12:28:00,
2015-07-28 08:33:00,77.4,77.4,30.10,SE,135,6.9,6.9,100,0.00,CLR,,0.01,WeatherDisplay:10.37,2015-07-28 12:33:00,
2015-07-28 08:38:00,77.8,77.8,30.10,SE,135,4.6,4.6,100,0.00,CLR,,0.01,WeatherDisplay:10.37,2015-07-28 12:38:00,
2015-07-28 08:43:00,78.0,78.0,30.10,SE,135,8.0,8.0,100,0.00,CLR,,0.01,WeatherDisplay:10.37,2015-07-28 12:43:00,
2015-07-28 08:48:00,78.5,78.5,30.10,SSE,157,8.1,8.1,100,0.00,CLR,,0.01,WeatherDisplay:10.37,2015-07-28 12:48:00,
2015-07-28 08:53:00,78.8,77.9,30.10,SE,135,9.2,9.2,97,0.00,CLR,,0.01,WeatherDisplay:10.37,2015-07-28 12:53:00,
2015-07-28 08:58:00,79.4,78.8,30.10,SE,135,6.0,6.0,98,0.00,CLR,,0.01,WeatherDisplay:10.37,2015-07-28 12:58:00,
2015-07-28 09:03:00,79.8,78.3,30.10,South,180,9.2,9.2,95,0.00,CLR,,0.01,WeatherDisplay:10.37,2015-07-28 13:03:00,
2015-07-28 09:08:00,80.2,77.4,30.10,SSE,157,11.5,11.5,91,0.00,CLR,,0.01,WeatherDisplay:10.37,2015-07-28 13:08:00,
2015-07-28 09:13:00,80.7,78.5,30.10,SSE,157,11.5,11.5,93,0.00,CLR,,0.01,WeatherDisplay:10.37,2015-07-28 13:13:00,
2015-07-28 09:18:00,81.1,77.9,30.10,South,180,11.5,11.5,90,0.00,CLR,,0.01,WeatherDisplay:10.37,2015-07-28 13:18:00,
2015-07-28 09:23:00,81.5,77.6,30.10,South,180,11.5,11.5,88,0.00,CLR,,0.01,WeatherDisplay:10.37,2015-07-28 13:23:00,
2015-07-28 09:28:00,81.8,77.6,30.10,SSE,157,9.2,9.2,87,0.00,CLR,,0.01,WeatherDisplay:10.37,2015-07-28 13:28:00,
2015-07-28 09:33:00,82.3,77.4,30.10,South,180,10.0,10.0,85,0.00,CLR,,0.01,WeatherDisplay:10.37,2015-07-28 13:33:00,
2015-07-28 09:38:00,82.6,77.6,30.10,South,180,10.4,10.4,85,0.00,CLR,,0.01,WeatherDisplay:10.37,2015-07-28 13:38:00,
2015-07-28 09:43:00,83.0,78.0,30.10,South,180,7.0,7.0,85,0.00,CLR,,0.01,WeatherDisplay:10.37,2015-07-28 13:43:00,
2015-07-28 09:48:00,83.4,77.0,30.10,SSE,157,9.2,9.2,81,0.00,CLR,,0.01,WeatherDisplay:10.37,2015-07-28 13:48:00,
2015-07-28 09:53:00,83.5,77.4,30.10,South,180,11.5,11.5,82,0.00,CLR,,0.01,WeatherDisplay:10.37,2015-07-28 13:53:00,
2015-07-28 10:03:00,83.8,76.6,30.10,South,180,9.2,9.2,79,0.00,CLR,,0.01,WeatherDisplay:10.37,2015-07-28 14:03:00,
2015-07-28 10:13:00,84.6,75.8,30.10,SSW,202,9.2,9.2,75,0.00,CLR,,0.01,WeatherDisplay:10.37,2015-07-28 14:13:00,
2015-07-28 10:18:00,84.3,75.1,30.11,South,180,11.5,11.5,74,0.00,CLR,,0.01,WeatherDisplay:10.37,2015-07-28 14:18:00,
2015-07-28 10:23:00,84.5,74.5,30.11,SSE,157,17.3,17.3,72,0.00,CLR,,0.01,WeatherDisplay:10.37,2015-07-28 14:23:00,
2015-07-28 10:33:00,84.8,75.2,30.11,South,180,16.1,16.1,73,0.00,CLR,,0.01,WeatherDisplay:10.37,2015-07-28 14:33:00,
2015-07-28 10:38:00,85.3,76.1,30.11,SE,135,16.1,16.1,74,0.00,CLR,,0.01,WeatherDisplay:10.37,2015-07-28 14:38:00,
2015-07-28 10:43:00,85.5,75.9,30.10,South,180,12.7,12.7,73,0.00,CLR,,0.01,WeatherDisplay:10.37,2015-07-28 14:43:00,
2015-07-28 10:48:00,85.4,75.4,30.10,South,180,13.8,13.8,72,0.00,CLR,,0.01,WeatherDisplay:10.37,2015-07-28 14:48:00,
2015-07-28 10:53:00,85.7,76.5,30.10,SSE,157,9.2,9.2,74,0.00,CLR,,0.01,WeatherDisplay:10.37,2015-07-28 14:53:00,
2015-07-28 10:58:00,85.8,75.3,30.10,SSE,157,10.0,10.0,71,0.00,CLR,,0.01,WeatherDisplay:10.37,2015-07-28 14:58:00,
2015-07-28 11:03:00,85.8,75.3,30.10,SSE,157,11.5,11.5,71,0.00,SCT,,0.01,WeatherDisplay:10.37,2015-07-28 15:03:00,
2015-07-28 11:08:00,86.1,76.4,30.10,South,180,9.2,9.2,73,0.00,SCT,,0.01,WeatherDisplay:10.37,2015-07-28 15:08:00,
2015-07-28 11:13:00,86.3,75.4,30.09,South,180,8.0,8.0,70,0.00,SCT,,0.01,WeatherDisplay:10.37,2015-07-28 15:13:00,
2015-07-28 11:18:00,86.2,75.3,30.09,SSE,157,15.0,15.0,70,0.00,SCT,,0.01,WeatherDisplay:10.37,2015-07-28 15:18:00,
2015-07-28 11:23:00,85.8,75.7,30.09,SW,225,6.9,6.9,72,0.00,SCT,,0.01,WeatherDisplay:10.37,2015-07-28 15:23:00,
2015-07-28 11:28:00,85.1,75.1,30.09,South,180,12.7,12.7,72,0.00,SCT,,0.01,WeatherDisplay:10.37,2015-07-28 15:28:00,
2015-07-28 11:33:00,84.7,74.3,30.09,SW,225,15.0,15.0,71,0.00,SCT,,0.01,WeatherDisplay:10.37,2015-07-28 15:33:00,
2015-07-28 11:38:00,84.7,74.7,30.08,SSE,157,11.5,11.5,72,0.00,SCT,,0.01,WeatherDisplay:10.37,2015-07-28 15:38:00,
2015-07-28 11:48:00,85.9,74.6,30.08,South,180,13.8,13.8,69,0.00,SCT,,0.01,WeatherDisplay:10.37,2015-07-28 15:48:00,
2015-07-28 11:53:00,86.9,76.4,30.08,SSE,157,9.2,9.2,71,0.00,SCT,,0.01,WeatherDisplay:10.37,2015-07-28 15:53:00,
2015-07-28 11:58:00,86.8,75.9,30.09,SSE,157,10.4,10.4,70,0.00,SCT,,0.01,WeatherDisplay:10.37,2015-07-28 15:58:00,
2015-07-28 12:03:00,86.7,76.2,30.08,SW,225,11.5,11.5,71,0.00,SCT,,0.01,WeatherDisplay:10.37,2015-07-28 16:03:00,
2015-07-28 12:08:00,87.0,75.2,30.08,South,180,15.0,15.0,68,0.00,SCT,,0.01,WeatherDisplay:10.37,2015-07-28 16:08:00,
2015-07-28 12:13:00,87.6,76.2,30.08,South,180,10.4,10.4,69,0.00,SCT,,0.01,WeatherDisplay:10.37,2015-07-28 16:13:00,
2015-07-28 12:18:00,87.5,76.5,30.08,SSE,157,10.4,10.4,70,0.00,SCT,,0.01,WeatherDisplay:10.37,2015-07-28 16:18:00,
2015-07-28 12:23:00,86.6,75.7,30.08,South,180,13.0,13.0,70,0.00,SCT,,0.01,WeatherDisplay:10.37,2015-07-28 16:23:00,
2015-07-28 12:28:00,87.2,76.2,30.08,South,180,10.4,10.4,70,0.00,SCT,,0.01,WeatherDisplay:10.37,2015-07-28 16:28:00,
2015-07-28 12:33:00,86.4,74.2,30.08,South,180,19.6,19.6,67,0.00,SCT,,0.01,WeatherDisplay:10.37,2015-07-28 16:33:00,
2015-07-28 12:38:00,85.7,74.8,30.08,SE,135,9.2,9.2,70,0.00,SCT,,0.01,WeatherDisplay:10.37,2015-07-28 16:38:00,
2015-07-28 12:43:00,85.3,76.1,30.08,South,180,11.5,11.5,74,0.00,SCT,,0.01,WeatherDisplay:10.37,2015-07-28 16:43:00,
2015-07-28 12:48:00,85.3,76.5,30.07,SSE,157,10.4,10.4,75,0.00,SCT,,0.01,WeatherDisplay:10.37,2015-07-28 16:48:00,
2015-07-28 12:58:00,86.2,77.4,30.07,SSE,157,14.0,14.0,75,0.00,SCT,,0.01,WeatherDisplay:10.37,2015-07-28 16:58:00,
2015-07-28 13:03:00,86.3,76.6,30.07,SSE,157,11.5,11.5,73,0.00,BKN,,0.01,WeatherDisplay:10.37,2015-07-28 17:03:00,
2015-07-28 13:08:00,87.3,77.2,30.07,SSE,157,12.0,12.0,72,0.00,BKN,,0.01,WeatherDisplay:10.37,2015-07-28 17:08:00,
2015-07-28 13:13:00,87.3,75.0,30.07,SSE,157,12.0,12.0,67,0.00,BKN,,0.01,WeatherDisplay:10.37,2015-07-28 17:13:00,
2015-07-28 13:18:00,87.3,75.5,30.07,South,180,9.2,9.2,68,0.00,BKN,,0.01,WeatherDisplay:10.37,2015-07-28 17:18:00,
2015-07-28 13:23:00,87.2,77.1,30.07,SSE,157,13.8,13.8,72,0.00,BKN,,0.01,WeatherDisplay:10.37,2015-07-28 17:23:00,
2015-07-28 13:28:00,86.3,77.9,30.06,SSE,157,15.0,15.0,76,0.00,BKN,,0.01,WeatherDisplay:10.37,2015-07-28 17:28:00,
2015-07-28 13:33:00,85.8,77.4,30.07,SE,135,13.8,13.8,76,0.00,BKN,,0.01,WeatherDisplay:10.37,2015-07-28 17:33:00,
2015-07-28 13:38:00,85.8,78.5,30.07,SSE,157,12.7,12.7,79,0.00,BKN,,0.01,WeatherDisplay:10.37,2015-07-28 17:38:00,
2015-07-28 13:43:00,85.8,77.8,30.06,SE,135,16.1,16.1,77,0.00,BKN,,0.01,WeatherDisplay:10.37,2015-07-28 17:43:00,
2015-07-28 13:49:00,86.2,77.8,30.06,SE,135,17.3,17.3,76,0.00,BKN,,0.01,WeatherDisplay:10.37,2015-07-28 17:49:00,
2015-07-28 13:53:00,86.2,78.2,30.06,SE,135,12.7,12.7,77,0.00,BKN,,0.01,WeatherDisplay:10.37,2015-07-28 17:53:00,
2015-07-28 13:59:00,86.8,77.9,30.06,SE,135,12.7,12.7,75,0.00,BKN,,0.01,WeatherDisplay:10.37,2015-07-28 17:59:00,
2015-07-28 14:04:00,87.2,77.9,30.05,SSE,157,11.5,11.5,74,0.00,SCT,,0.01,WeatherDisplay:10.37,2015-07-28 18:04:00,
2015-07-28 14:09:00,87.2,76.7,30.05,SE,135,13.8,13.8,71,0.00,SCT,,0.01,WeatherDisplay:10.37,2015-07-28 18:09:00,
2015-07-28 14:14:00,87.6,77.9,30.05,SE,135,10.0,10.0,73,0.00,SCT,,0.01,WeatherDisplay:10.37,2015-07-28 18:14:00,
2015-07-28 14:19:00,87.6,77.0,30.04,SSE,157,13.8,13.8,71,0.00,SCT,,0.01,WeatherDisplay:10.37,2015-07-28 18:19:00,
2015-07-28 14:24:00,87.5,77.4,30.04,SE,135,9.2,9.2,72,0.00,SCT,,0.01,WeatherDisplay:10.37,2015-07-28 18:24:00,
2015-07-28 14:29:00,88.0,76.1,30.04,South,180,9.2,9.2,68,0.00,SCT,,0.01,WeatherDisplay:10.37,2015-07-28 18:29:00,
2015-07-28 14:34:00,88.3,73.6,30.04,South,180,9.0,9.0,62,0.00,SCT,,0.01,WeatherDisplay:10.37,2015-07-28 18:34:00,
2015-07-28 14:39:00,88.3,73.2,30.04,SSW,202,11.5,11.5,61,0.00,SCT,,0.01,WeatherDisplay:10.37,2015-07-28 18:39:00,
2015-07-28 14:44:00,88.1,72.5,30.04,South,180,11.5,11.5,60,0.00,SCT,,0.01,WeatherDisplay:10.37,2015-07-28 18:44:00,
2015-07-28 14:49:00,88.5,73.3,30.04,SSW,202,13.8,13.8,61,0.00,SCT,,0.01,WeatherDisplay:10.37,2015-07-28 18:49:00,
2015-07-28 14:54:00,88.8,74.6,30.04,South,180,6.9,6.9,63,0.00,SCT,,0.01,WeatherDisplay:10.37,2015-07-28 18:54:00,
2015-07-28 14:59:00,89.4,74.2,30.04,SSW,202,15.0,15.0,61,0.00,SCT,,0.01,WeatherDisplay:10.37,2015-07-28 18:59:00,
2015-07-28 15:04:00,89.6,73.4,30.04,SSW,202,17.3,17.3,59,0.00,BKN,,0.01,WeatherDisplay:10.37,2015-07-28 19:04:00,
2015-07-28 15:09:00,89.7,74.0,30.04,SSW,202,10.4,10.4,60,0.00,BKN,,0.01,WeatherDisplay:10.37,2015-07-28 19:09:00,
2015-07-28 15:14:00,90.5,74.7,30.04,SW,225,8.1,8.1,60,0.00,BKN,,0.01,WeatherDisplay:10.37,2015-07-28 19:14:00,
2015-07-28 15:19:00,90.1,73.3,30.04,SSE,157,11.5,11.5,58,0.00,BKN,,0.01,WeatherDisplay:10.37,2015-07-28 19:19:00,